Hourly Data Report for June 06, 2020

TORONTO CITY
ONTARIO
Current Station Operator: ECCC - MSC

43°40'00.000" N
79°24'00.000" W
112.50 m
6158355
71508
XTO

Download Data

Hourly Data (June 2020)
Hourly Data Report for June 6, 2020
TIME
LST
Temp Definition
°C
Dew Point Definition
°C
Rel Hum Definition
%
Precip. Amount Definition
mm

Wind Dir Definition
10's deg

Wind Spd Definition
km/h
Visibility Definition
km
Stn Press Definition
kPa
Hmdx Definition


Wind Chill Definition


Weather Definition


00:00 21.0 12.5 58 0.0       99.51     LegendNANA
01:00 19.0 12.9 68 0.0       99.59     LegendNANA
02:00 19.3 12.3 64 0.0       99.53     LegendNANA
03:00 19.2 10.0 55 0.0       99.52     LegendNANA
04:00 18.8 8.0 49 0.0       99.58     LegendNANA
05:00 17.7 7.7 52 0.0       99.69     LegendNANA
06:00 17.4 7.8 53 0.0       99.74     LegendNANA
07:00 18.5 8.6 53 0.0       99.82     LegendNANA
08:00 21.1 8.7 45 0.0       99.89     LegendNANA
09:00 22.4 6.7 36 0.0       99.90     LegendNANA
10:00 23.5 6.4 33 0.0       99.88     LegendNANA
11:00 24.3 7.2 34 0.0       99.91     LegendNANA
12:00 24.0 8.9 38 0.0       99.92 25   LegendNANA
13:00 22.9 10.2 45 0.2       99.86     LegendNANA
14:00 24.1 8.7 38 0.0       99.82 25   LegendNANA
15:00 24.5 8.7 37 0.0       99.84 25   LegendNANA
16:00 23.9 6.2 32 0.2       99.86     LegendNANA
17:00 22.7 5.6 33 0.0       99.90     LegendNANA
18:00 21.5 7.0 39 0.0       99.97     LegendNANA
19:00 20.4 7.2 42 0.0       100.03     LegendNANA
20:00 19.3 7.4 46 0.0       100.08     LegendNANA
21:00 18.2 8.0 51 0.0       100.15     LegendNANA
22:00 17.3 8.3 55 0.0       100.17     LegendNANA
23:00 16.5 8.5 59 0.0       100.25     LegendNANA

Notes on Data Quality.

Legend

  • E = Estimated
  • M = Missing
  • NA = Not Available*
  • [empty] = Indicates an unobserved value
Date modified: